Location: Oso Ridge
(35.0450°N, 108.0864°W)
Time: 22:26:57
(UTC-06:00)

Amateur Radio Satellites - All Passes

Search period start: 29 March 2015 21:56
Search period end: 30 March 2015 21:56
Location: Oso Ridge, 35.0450°N, 108.0864°W

Satellite Date Start Highest point End Downlink Frequencies (MHz)
Time Altitude Azimuth
RS-15 29 Mar 22:04:36 22:13:22 26° 324° (NW) 22:21:59 29.354- 29.394
UKube-1 29 Mar 22:11:33 22:15:26 33° 72° (ENE) 22:19:22 .
AAUSAT CUBESAT 2 29 Mar 22:12:39 22:16:29 35° 263° (W) 22:20:20 437.432
HUMSAT D 29 Mar 22:17:45 22:21:01 24° 72° (ENE) 22:24:24 437.325/437.525
SEEDS 29 Mar 22:19:02 22:22:18 21° 266° (W) 22:25:30 437.485
DX 1 29 Mar 22:21:57 22:26:08 47° 74° (ENE) 22:30:21 434.975-435.025
CUSAT 1 29 Mar 22:24:13 22:25:04 11° 284° (WNW) 22:25:44 437.405
ISS 29 Mar 22:36:18 22:39:32 64° 135° (SE) 22:42:45 145.825
Oscar 11 29 Mar 22:40:51 22:44:52 37° 262° (W) 22:48:53 145.826/435.025
COMPASS 1 29 Mar 22:41:54 22:44:17 14° 269° (W) 22:46:29 437.405
HO-68 29 Mar 22:49:19 22:54:08 18° 269° (W) 22:58:34 435.675
FUNcube-1 29 Mar 22:52:10 22:56:14 57° 260° (W) 23:00:19 145.935
CINEMA 3 29 Mar 22:56:06 22:58:58 17° 267° (W) 23:01:39 145.822/145.860
UWE-3 29 Mar 22:57:52 23:01:44 37° 262° (W) 23:05:35 435.000/436.395/437.385
50 SAT 29 Mar 22:58:39 23:02:24 48° 75° (ENE) 23:06:12 437.505
CUBEBUG 1 29 Mar 23:03:11 23:06:41 24° 71° (ENE) 23:10:17 437.445
VELOX 1 29 Mar 23:03:29 23:07:51 58° 75° (ENE) 23:12:13 145.980
CUBEBUG 2 29 Mar 23:04:17 23:07:48 25° 265° (W) 23:11:15 437.445
ZACube-1 29 Mar 23:05:28 23:09:20 38° 262° (W) 23:13:13 437.345
NANOSAT C BR1 29 Mar 23:07:56 23:09:12 11° 91° (E) 23:10:42 145.865
AISAT 29 Mar 23:08:18 23:12:43 69° 76° (ENE) 23:17:08 437.250
POLYITAN 1 29 Mar 23:11:54 23:13:54 13° 91° (E) 23:16:09 437.675
UNISAT 6 29 Mar 23:14:19 23:18:26 32° 97° (E) 23:22:39 437.425
TIGRISAT 29 Mar 23:24:12 23:28:31 40° 98° (E) 23:32:56 435.000
DELFI C3 29 Mar 23:26:47 23:28:59 14° 269° (W) 23:30:57 145.870
PCSat 29 Mar 23:28:21 23:31:55 18° 49° (NE) 23:35:38 145.827
ESTCUBE 1 29 Mar 23:39:11 23:43:43 73° 77° (ENE) 23:48:17 437.505/2401.250
QB50P1 29 Mar 23:47:21 23:51:14 36° 98° (E) 23:55:09 145.935-145.965
UKube-1 29 Mar 23:48:43 23:51:42 17° 267° (W) 23:54:32 .
DUCHIFAT 1 29 Mar 23:48:56 23:52:49 36° 98° (E) 23:56:44 145.980
HUMSAT D 29 Mar 23:53:36 23:56:47 21° 266° (W) 23:59:53 437.325/437.525
ANTELSAT 29 Mar 23:54:31 23:59:09 87° 283° (WNW) 00:03:51 437.575/2403.000
DX 1 30 Mar 00:00:46 00:02:43 12° 269° (W) 00:04:24 434.975-435.025
QB50P2 30 Mar 00:02:07 00:06:18 57° 100° (E) 00:10:29 145.880/145.840
ISS 30 Mar 00:14:16 00:16:14 15° 332° (NNW) 00:18:08 145.825
BUGSAT 1 30 Mar 00:27:28 00:31:30 79° 102° (ESE) 00:35:32 437.445
RS-15 30 Mar 00:28:01 00:31:40 12° 359° (N) 00:35:20 29.354- 29.394
POPSAT HIP 1 30 Mar 00:30:47 00:35:00 64° 283° (WNW) 00:39:10 437.405
TISAT 1 30 Mar 00:33:30 00:37:36 53° 75° (ENE) 00:41:44 437.305
CUBEBUG 1 30 Mar 00:39:18 00:43:00 25° 265° (W) 00:46:36 437.445
NANOSAT C BR1 30 Mar 00:41:18 00:45:23 47° 285° (WNW) 00:49:26 145.865
VELOX 1 30 Mar 00:43:59 00:44:51 10° 270° (W) 00:45:24 145.980
SPROUT 30 Mar 00:45:32 00:49:50 89° 225° (SW) 00:54:09 437.525
POLYITAN 1 30 Mar 00:46:04 00:50:05 41° 286° (WNW) 00:54:03 437.675
ITUPSAT 1 30 Mar 00:49:07 00:50:56 12° 66° (ENE) 00:53:02 437.325
UNISAT 6 30 Mar 00:51:32 00:55:03 21° 290° (WNW) 00:58:29 437.425
TIGRISAT 30 Mar 01:01:57 01:05:00 17° 291° (WNW) 01:07:55 435.000
PCSat 30 Mar 01:10:28 01:15:49 61° 247° (WSW) 01:21:07 145.827
YUBILEINY 30 Mar 01:19:31 01:28:16 63° 80° (E) 01:36:56 435.215
QB50P1 30 Mar 01:24:12 01:26:52 16° 291° (WNW) 01:29:22 145.935-145.965
DUCHIFAT 1 30 Mar 01:25:47 01:28:24 16° 291° (WNW) 01:30:50 145.980
Oscar 19 30 Mar 01:32:23 01:35:08 15° 91° (E) 01:38:10 437.125/150
SWISSCUBE 30 Mar 01:33:48 01:38:16 41° 72° (ENE) 01:42:48 437.505
BEESAT 30 Mar 01:36:41 01:41:08 40° 73° (ENE) 01:45:39 436.000
QB50P2 30 Mar 01:40:46 01:41:47 11° 293° (WNW) 01:42:33 145.880/145.840
ITUPSAT 1 30 Mar 02:23:35 02:28:22 63° 259° (W) 02:33:10 437.325
ITAMSAT 1 30 Mar 02:38:23 02:42:08 21° 93° (E) 02:46:02 435.822/435.867
RS-15 30 Mar 02:41:46 02:50:15 24° 34° (NE) 02:59:24 29.354- 29.394
Oscar 19 30 Mar 03:09:50 03:14:53 54° 286° (WNW) 03:19:55 437.125/150
KKS-1 30 Mar 03:12:00 03:16:26 79° 77° (ENE) 03:20:52 437.445
SWISSCUBE 30 Mar 03:13:07 03:16:21 17° 268° (W) 03:19:24 437.505
O/OREOS (USA 219) 30 Mar 03:13:44 03:15:27 12° 100° (E) 03:17:26 437.305
BEESAT 30 Mar 03:15:56 03:19:12 17° 268° (W) 03:22:17 436.000
YUBILEINY 30 Mar 03:17:45 03:24:28 24° 276° (W) 03:30:46 435.215
SO-50 30 Mar 03:27:25 03:31:09 21° 49° (NE) 03:34:58 436.795
Gurwin Techsat 1B 30 Mar 03:29:56 03:35:10 57° 100° (E) 03:40:23 435.225
STARS 30 Mar 03:42:33 03:46:55 73° 258° (WSW) 03:51:18 437.465
HORYU 2 30 Mar 03:44:37 03:47:07 15° 92° (E) 03:49:50 437.375
AO-7 30 Mar 03:49:00 03:53:23 16° 90° (E) 03:58:21 29.400- 29.500
JAS-2 30 Mar 03:56:01 03:59:46 15° 85° (E) 04:03:52 435.910
ITAMSAT 1 30 Mar 04:16:59 04:21:49 39° 289° (WNW) 04:26:34 435.822/435.867
M-CUBED/EXP-1 PRIME 30 Mar 04:20:48 04:20:56 10° 59° (ENE) 04:21:19 437.505
VERMONT LUNAR 30 Mar 04:26:24 04:29:03 22° 146° (SSE) 04:31:44 437.305
AIST 1 30 Mar 04:38:50 04:43:14 82° 96° (E) 04:47:39
O/OREOS (USA 219) 30 Mar 04:49:59 04:54:28 51° 293° (WNW) 04:58:58 437.305
MOZHAYETS 4 30 Mar 04:51:51 04:56:17 48° 74° (ENE) 05:00:46
RS-15 30 Mar 04:53:21 05:04:57 79° 60° (ENE) 05:17:04 29.354- 29.394
ISS 30 Mar 05:06:56 05:09:20 19° 31° (NNE) 05:11:46 145.825
SO-50 30 Mar 05:07:14 05:11:58 45° 245° (WSW) 05:16:35 436.795
Gurwin Techsat 1B 30 Mar 05:11:28 05:14:44 16° 294° (WNW) 05:17:47 435.225
PHONESAT 2.4 30 Mar 05:12:43 05:15:27 22° 146° (SE) 05:18:14 2401.200-2431.200
HORYU 2 30 Mar 05:19:45 05:24:01 42° 287° (WNW) 05:28:14 437.375
AUBIESAT-1 30 Mar 05:26:14 05:30:05 52° 69° (ENE) 05:34:18 437.475
JAS-2 30 Mar 05:38:11 05:45:57 85° 282° (WNW) 05:52:56 435.910
GONETS M04 30 Mar 05:38:52 05:44:07 18° 64° (ENE) 05:49:55
AO-7 30 Mar 05:38:55 05:47:15 87° 287° (WNW) 05:55:34 29.400- 29.500
M-CUBED/EXP-1 PRIME 30 Mar 05:51:19 05:55:13 65° 255° (WSW) 05:59:29 437.505
VERMONT LUNAR 30 Mar 06:03:14 06:06:33 67° 339° (NNW) 06:09:54 437.305
STRAND 1 30 Mar 06:11:08 06:13:58 16° 66° (ENE) 06:17:03 437.568
MOZHAYETS 4 30 Mar 06:31:28 06:33:51 13° 270° (W) 06:35:59
CUBESAT XI-V 30 Mar 06:40:57 06:45:32 54° 74° (ENE) 06:50:08 437.345
ISS 30 Mar 06:42:49 06:45:51 38° 227° (SW) 06:48:51 145.825
CUTE-I 30 Mar 06:43:53 06:48:13 26° 95° (E) 06:52:40 437.470
Cubesat XI-IV 30 Mar 06:44:17 06:48:40 27° 95° (E) 06:53:09 437.490
PHONESAT 2.4 30 Mar 06:50:03 06:53:34 73° 339° (NNW) 06:57:06 2401.200-2431.200
AUBIESAT-1 30 Mar 07:04:44 07:05:27 10° 268° (W) 07:05:52 437.475
RS-15 30 Mar 07:07:31 07:16:33 25° 255° (WSW) 07:25:12 29.354- 29.394
PRISM 30 Mar 07:09:37 07:13:50 84° 259° (W) 07:18:04 437.425
CUSAT 1 30 Mar 07:17:59 07:20:45 16° 76° (ENE) 07:24:14 437.405
JAS-2 30 Mar 07:25:35 07:29:52 15° 301° (WNW) 07:33:36 435.910
GONETS M04 30 Mar 07:33:22 07:42:15 84° 265° (W) 07:51:05
AO-7 30 Mar 07:33:58 07:39:04 17° 304° (NW) 07:43:45 29.400- 29.500
VERMONT LUNAR 30 Mar 07:41:32 07:44:35 31° 357° (N) 07:47:37 437.305
STRAND 1 30 Mar 07:47:43 07:52:47 56° 260° (W) 07:57:50 437.568
DANDE 30 Mar 08:11:14 08:15:18 39° 81° (E) 08:20:42 436.750
CUBESAT XI-V 30 Mar 08:21:12 08:23:22 13° 270° (W) 08:25:14 437.345
CUTE-I 30 Mar 08:23:37 08:28:21 33° 290° (WNW) 08:33:00 437.470
Cubesat XI-IV 30 Mar 08:24:04 08:28:48 32° 290° (WNW) 08:33:27 437.490
PHONESAT 2.4 30 Mar 08:28:59 08:32:13 33° 356° (N) 08:35:28 2401.200-2431.200
HO-68 30 Mar 08:32:31 08:35:57 14° 89° (E) 08:39:53 435.675
CUSAT 1 30 Mar 08:58:58 09:03:29 49° 263° (W) 09:09:26 437.405
BRITE-PL 30 Mar 09:15:59 09:20:04 46° 99° (E) 09:24:24 437.365/2234.400
VERMONT LUNAR 30 Mar 09:19:30 09:22:42 42° 13° (NNE) 09:25:54 437.305
CANX-2 30 Mar 09:24:12 09:28:05 33° 97° (E) 09:32:00 2200.000
GONETS M04 30 Mar 09:33:56 09:38:00 13° 280° (W) 09:41:18
CUTE 1.7 + AOD 2 30 Mar 09:37:49 09:41:56 43° 98° (E) 09:46:03 437.475
DOVE 4 30 Mar 09:42:19 09:46:26 39° 98° (E) 09:50:49 437.250
DANDE 30 Mar 09:55:28 09:58:37 17° 264° (W) 10:02:05 436.750
BEESAT 2 30 Mar 09:56:02 09:59:36 30° 113° (ESE) 10:03:18 435.950
GOMX 1 30 Mar 09:57:51 10:02:11 87° 282° (WNW) 10:06:46 467.674
AAUSAT CUBESAT 2 30 Mar 09:58:46 10:02:49 44° 98° (E) 10:06:51 437.432
SEEDS 30 Mar 10:05:31 10:09:50 80° 100° (E) 10:14:07 437.485
PHONESAT 2.4 30 Mar 10:07:37 10:11:00 43° 13° (NNE) 10:14:24 2401.200-2431.200
UNISAT 6 30 Mar 10:11:24 10:14:19 19° 69° (ENE) 10:17:23 437.425
DX 1 30 Mar 10:16:42 10:17:08 10° 90° (E) 10:17:52 434.975-435.025
HO-68 30 Mar 10:17:21 10:24:35 83° 286° (WNW) 10:31:46 435.675
TIGRISAT 30 Mar 10:20:45 10:24:04 23° 70° (ENE) 10:27:29 435.000
COMPASS 1 30 Mar 10:26:33 10:30:48 70° 284° (WNW) 10:35:01 437.405
Oscar 11 30 Mar 10:31:09 10:35:23 47° 99° (E) 10:39:36 145.826/435.025
BEESAT 3 30 Mar 10:31:24 10:35:28 81° 299° (WNW) 10:39:37 437.485
QB50P1 30 Mar 10:37:57 10:40:51 19° 70° (ENE) 10:43:51 145.935-145.965
DUCHIFAT 1 30 Mar 10:39:14 10:42:07 19° 70° (ENE) 10:45:08 145.980
FUNcube-1 30 Mar 10:43:42 10:47:40 33° 97° (E) 10:51:45 145.935
UWE-3 30 Mar 10:50:17 10:54:37 51° 99° (E) 10:59:05 435.000/436.395/437.385
ANTELSAT 30 Mar 10:50:38 10:54:46 54° 75° (ENE) 10:59:00 437.575/2403.000
CINEMA 3 30 Mar 10:51:55 10:56:20 64° 284° (WNW) 11:00:56 145.822/145.860
QB50P2 30 Mar 10:52:23 10:55:57 28° 72° (ENE) 10:59:36 145.880/145.840
BRITE-PL 30 Mar 10:56:28 10:58:22 12° 291° (WNW) 11:00:05 437.365/2234.400
ZACube-1 30 Mar 10:56:44 11:01:00 48° 99° (E) 11:05:23 437.345
VERMONT LUNAR 30 Mar 10:57:11 11:00:26 47° 209° (SSW) 11:03:41 437.305
CUBEBUG 2 30 Mar 10:57:17 11:01:46 78° 103° (ESE) 11:06:21 437.445
VELOX 1 30 Mar 10:59:01 11:01:14 14° 92° (E) 11:03:40 145.980
CANX-2 30 Mar 11:00:49 11:03:48 18° 290° (WNW) 11:06:39 2200.000
AISAT 30 Mar 11:03:41 11:06:26 17° 93° (E) 11:09:21 437.250
DELFI C3 30 Mar 11:07:30 11:11:37 78° 283° (WNW) 11:15:42 145.870
AIST 2 30 Mar 11:13:03 11:17:16 78° 118° (ESE) 11:21:35 435.215
BUGSAT 1 30 Mar 11:14:32 11:18:18 34° 73° (ENE) 11:22:05 437.445
CUTE 1.7 + AOD 2 30 Mar 11:15:13 11:17:32 14° 292° (WNW) 11:19:40 437.475
POPSAT HIP 1 30 Mar 11:20:17 11:24:26 60° 76° (ENE) 11:28:36 437.405
DOVE 4 30 Mar 11:21:14 11:24:00 16° 290° (WNW) 11:26:41 437.250
NANOSAT C BR1 30 Mar 11:30:24 11:34:36 81° 78° (ENE) 11:38:50 145.865
BEESAT 2 30 Mar 11:34:37 11:37:49 21° 309° (NW) 11:40:58 435.950
POLYITAN 1 30 Mar 11:35:34 11:39:47 85° 254° (WSW) 11:44:02 437.675
AAUSAT CUBESAT 2 30 Mar 11:35:58 11:38:07 13° 292° (WNW) 11:40:03 437.432
ESTCUBE 1 30 Mar 11:36:16 11:39:28 20° 93° (E) 11:42:47 437.505/2401.250
UKube-1 30 Mar 11:37:54 11:42:14 82° 284° (WNW) 11:46:32 .
HUMSAT D 30 Mar 11:39:42 11:43:59 76° 102° (ESE) 11:48:17 437.325/437.525
PHONESAT 2.4 30 Mar 11:45:57 11:49:24 51° 209° (SSW) 11:52:51 2401.200-2431.200
UNISAT 6 30 Mar 11:47:08 11:50:56 30° 264° (W) 11:54:43 437.425
DX 1 30 Mar 11:49:33 11:53:49 55° 285° (WNW) 11:58:02 434.975-435.025
TIGRISAT 30 Mar 11:57:16 12:00:46 24° 265° (W) 12:04:13 435.000
HO-68 30 Mar 12:07:47 12:11:24 14° 302° (WNW) 12:14:34 435.675
Oscar 11 30 Mar 12:09:02 12:11:12 13° 292° (WNW) 12:13:08 145.826/435.025
QB50P1 30 Mar 12:12:48 12:16:33 30° 263° (W) 12:20:15 145.935-145.965
DUCHIFAT 1 30 Mar 12:14:04 12:17:47 29° 263° (W) 12:21:28 145.980
50 SAT 30 Mar 12:14:13 12:18:14 61° 284° (WNW) 12:22:14 437.505
FUNcube-1 30 Mar 12:20:38 12:23:49 19° 290° (WNW) 12:26:55 145.935
TISAT 1 30 Mar 12:24:07 12:24:57 11° 90° (E) 12:26:03 437.305
YUBILEINY 30 Mar 12:26:06 12:28:47 12° 80° (E) 12:32:18 435.215
UWE-3 30 Mar 12:28:40 12:30:49 13° 292° (WNW) 12:32:46 435.000/436.395/437.385
QB50P2 30 Mar 12:28:45 12:31:55 20° 266° (W) 12:34:56 145.880/145.840
CUBEBUG 1 30 Mar 12:30:37 12:34:57 76° 100° (E) 12:39:16 437.445
VELOX 1 30 Mar 12:33:54 12:38:04 42° 287° (WNW) 12:42:12 145.980
ZACube-1 30 Mar 12:34:46 12:37:03 14° 292° (WNW) 12:39:08 437.345
SPROUT 30 Mar 12:36:25 12:39:32 20° 94° (E) 12:42:45 437.525
AISAT 30 Mar 12:39:10 12:43:12 35° 287° (WNW) 12:47:12 437.250
Oscar 19 30 Mar 12:46:27 12:49:28 16° 66° (ENE) 12:52:42 437.125/150
BUGSAT 1 30 Mar 12:51:24 12:53:57 15° 267° (W) 12:56:18 437.445
AIST 2 30 Mar 12:55:17 12:56:29 11° 316° (NW) 12:57:30 435.215
JUGNU 30 Mar 13:07:22 13:09:01 11° 166° (SSE) 13:10:47 437.505
ESTCUBE 1 30 Mar 13:12:24 13:16:25 32° 288° (WNW) 13:20:23 437.505/2401.250
O/OREOS (USA 219) 30 Mar 13:25:25 13:27:58 15° 57° (ENE) 13:30:42 437.305
SWISSCUBE 30 Mar 13:39:08 13:41:23 14° 91° (E) 13:43:55 437.505
BEESAT 30 Mar 13:41:57 13:44:08 13° 91° (E) 13:46:35 436.000
ITAMSAT 1 30 Mar 13:53:17 13:57:19 24° 69° (ENE) 14:01:30 435.822/435.867
TISAT 1 30 Mar 13:57:02 14:01:06 49° 285° (WNW) 14:05:09 437.305
PCSat 30 Mar 14:06:23 14:10:52 28° 109° (ESE) 14:15:28 145.827
SPROUT 30 Mar 14:11:57 14:15:40 28° 288° (WNW) 14:19:17 437.525
YUBILEINY 30 Mar 14:15:41 14:24:27 80° 95° (E) 14:33:19 435.215
Oscar 19 30 Mar 14:23:28 14:28:27 52° 261° (W) 14:33:26 437.125/150
ITUPSAT 1 30 Mar 14:27:41 14:32:15 43° 99° (E) 14:36:47 437.325
AO-7 30 Mar 14:45:08 14:50:17 19° 57° (ENE) 14:55:51 29.400- 29.500
Gurwin Techsat 1B 30 Mar 14:47:43 14:52:57 65° 75° (ENE) 14:58:15 435.225
AIST 1 30 Mar 14:51:04 14:53:21 14° 72° (ENE) 14:55:49
JUGNU 30 Mar 14:53:32 14:57:20 17° 175° (S) 15:01:10 437.505
O/OREOS (USA 219) 30 Mar 15:03:22 15:07:43 45° 254° (WSW) 15:12:00 437.305
KKS-1 30 Mar 15:07:20 15:10:31 20° 94° (E) 15:13:49 437.445
SWISSCUBE 30 Mar 15:14:59 15:19:37 51° 286° (WNW) 15:24:13 437.505
BEESAT 30 Mar 15:17:43 15:22:23 52° 286° (WNW) 15:26:59 436.000
ITAMSAT 1 30 Mar 15:31:52 15:36:39 36° 263° (W) 15:41:25 435.822/435.867
STARS 30 Mar 15:36:06 15:39:46 26° 96° (E) 15:43:29 437.465
JAS-2 30 Mar 15:46:00 15:51:57 33° 66° (ENE) 15:58:34 435.910
PCSat 30 Mar 15:49:15 15:54:11 34° 304° (NW) 15:59:05 145.827
SRMSAT 30 Mar 15:55:23 15:58:50 16° 172° (S) 16:02:20 437.500
ITUPSAT 1 30 Mar 16:06:38 16:09:50 17° 292° (WNW) 16:12:50 437.325
HORYU 2 30 Mar 16:14:31 16:18:55 68° 259° (W) 16:23:22 437.375
YUBILEINY 30 Mar 16:16:27 16:22:28 19° 295° (WNW) 16:28:01 435.215
AIST 1 30 Mar 16:27:16 16:31:14 36° 268° (W) 16:35:08
Gurwin Techsat 1B 30 Mar 16:31:01 16:33:29 13° 271° (W) 16:35:36 435.225
AO-7 30 Mar 16:33:54 16:42:14 86° 254° (WSW) 16:50:35 29.400- 29.500
JUGNU 30 Mar 16:41:53 16:45:41 17° 185° (S) 16:49:27 437.505
KKS-1 30 Mar 16:43:17 16:47:14 31° 288° (WNW) 16:51:07 437.445
MOZHAYETS 4 30 Mar 16:51:44 16:54:19 15° 91° (E) 16:57:06
RS-15 30 Mar 17:10:18 17:12:24 11° 100° (E) 17:15:46 29.354- 29.394
STARS 30 Mar 17:12:36 17:16:09 23° 290° (WNW) 17:19:36 437.465
JAS-2 30 Mar 17:30:19 17:36:46 44° 264° (W) 17:43:50 435.910
M-CUBED/EXP-1 PRIME 30 Mar 17:37:31 17:40:14 15° 95° (E) 17:43:07 437.505
SO-50 30 Mar 17:41:23 17:42:47 11° 108° (ESE) 17:44:28 436.795
SRMSAT 30 Mar 17:43:23 17:47:19 18° 182° (S) 17:51:13 437.500
CUTE-I 30 Mar 18:02:32 18:07:12 32° 70° (ENE) 18:11:57 437.470
Cubesat XI-IV 30 Mar 18:03:05 18:07:47 33° 70° (ENE) 18:12:35 437.490
MOZHAYETS 4 30 Mar 18:27:24 18:31:49 43° 286° (WNW) 18:36:11
AO-7 30 Mar 18:32:02 18:36:16 14° 271° (W) 18:39:48 29.400- 29.500
JUGNU 30 Mar 18:32:35 18:33:59 11° 195° (SSW) 18:35:17 437.505
GONETS M04 30 Mar 18:36:27 18:42:26 22° 84° (E) 18:48:52
CUBESAT XI-V 30 Mar 18:42:14 18:45:10 17° 92° (E) 18:48:16 437.345
AUBIESAT-1 30 Mar 18:44:57 18:49:47 77° 105° (ESE) 18:54:26 437.475
BEESAT 3 30 Mar 18:54:03 18:57:18 22° 52° (NE) 19:00:34 437.485
PRISM 30 Mar 18:56:43 18:59:24 17° 93° (E) 19:02:13 437.425
M-CUBED/EXP-1 PRIME 30 Mar 19:10:43 19:15:26 50° 291° (WNW) 19:19:58 437.505
RS-15 30 Mar 19:12:27 19:23:13 71° 115° (ESE) 19:34:09 29.354- 29.394
SO-50 30 Mar 19:18:15 19:22:48 62° 302° (WNW) 19:27:32 436.795
SRMSAT 30 Mar 19:33:02 19:35:47 13° 192° (SSW) 19:38:28 437.500
AIST 2 30 Mar 19:38:42 19:41:50 20° 50° (NE) 19:45:03 435.215
CUTE-I 30 Mar 19:42:43 19:47:17 27° 265° (W) 19:51:46 437.470
Cubesat XI-IV 30 Mar 19:43:23 19:47:55 27° 265° (W) 19:52:22 437.490
BEESAT 2 30 Mar 19:55:56 20:00:05 88° 237° (WSW) 20:04:09 435.950
STRAND 1 30 Mar 20:01:30 20:06:35 65° 101° (E) 20:11:38 437.568
CANX-2 30 Mar 20:15:14 20:17:49 17° 69° (ENE) 20:20:35 2200.000
CUBESAT XI-V 30 Mar 20:18:31 20:22:48 38° 287° (WNW) 20:27:01 437.345
AUBIESAT-1 30 Mar 20:22:17 20:23:59 11° 300° (WNW) 20:25:25 437.475
BRITE-PL 30 Mar 20:23:56 20:28:19 39° 74° (ENE) 20:32:28 437.365/2234.400
CUTE 1.7 + AOD 2 30 Mar 20:28:21 20:31:29 21° 71° (ENE) 20:34:45 437.475
GONETS M04 30 Mar 20:29:59 20:38:36 66° 280° (W) 20:47:18
PRISM 30 Mar 20:31:17 20:34:59 31° 288° (WNW) 20:38:36 437.425
BEESAT 3 30 Mar 20:31:51 20:35:21 27° 247° (WSW) 20:38:44 437.485
HO-68 30 Mar 20:42:00 20:48:53 54° 70° (ENE) 20:55:51 435.675
DOVE 4 30 Mar 20:45:43 20:49:19 27° 73° (ENE) 20:52:54 437.250
AAUSAT CUBESAT 2 30 Mar 20:47:23 20:50:24 20° 70° (ENE) 20:53:31 437.432
SEEDS 30 Mar 20:54:39 20:58:28 35° 73° (ENE) 21:02:21 437.485
GOMX 1 30 Mar 21:03:05 21:07:35 69° 77° (ENE) 21:11:51 467.674
COMPASS 1 30 Mar 21:14:36 21:18:37 50° 75° (ENE) 21:22:43 437.405
AIST 2 30 Mar 21:16:43 21:20:32 33° 247° (WSW) 21:24:15 435.215
DANDE 30 Mar 21:23:16 21:26:27 60° 97° (E) 21:29:09 436.750
Oscar 11 30 Mar 21:23:18 21:26:45 25° 71° (ENE) 21:30:21 145.826/435.025
RS-15 30 Mar 21:27:05 21:36:38 32° 318° (NW) 21:46:08 29.354- 29.394
FUNcube-1 30 Mar 21:37:47 21:40:22 17° 70° (ENE) 21:43:08 145.935
STRAND 1 30 Mar 21:42:47 21:45:18 13° 295° (WNW) 21:47:32 437.568
ISS 30 Mar 21:43:24 21:46:12 27° 131° (SE) 21:49:03 145.825
UWE-3 30 Mar 21:45:10 21:48:36 26° 72° (ENE) 21:52:07 435.000/436.395/437.385
